Tracking 27401 objects as of 3-Jun-2023
HD Live streaming from Space Station
objects crossing your sky now

NSS 5 (INTELSAT 803)

Track NSS 5 (INTELSAT 803) now!
NSS 5 (INTELSAT 803) is classified as:


NORAD ID: 24957
Int'l Code: 1997-053A
Perigee: 36,115.7 km
Apogee: 36,134.6 km
Inclination: 8.1 °
Period: 1,453.1 minutes
Semi major axis: 42496 km
RCS: 25.1188 m2 (large)
Launch date: September 23, 1997
Source: Netherlands (NETH)
Launch site: FRENCH GUIANA (FRGUI)

38 C-band, 6 Ku-band; Pacific Ocean region; shared capacity with Intelset.
Your satellite tracking list
Your tracking list is empty




NASA's NSSDC Master Catalog

Two Line Element Set (TLE):
1 24957U 97053A   23154.62896748  .00000069  00000-0  00000+0 0  9990
2 24957   8.1354  56.8965 0002224  63.5428 242.8796  0.99101085 94045
Source of the keplerian elements: AFSPC